This is the latest recevied weather packets stored in our database for station/object S57D-6. If no packets are shown the sender has not sent any weather packets the latest 1 day(s).
| Time | Temp. | Humidity | Pressure | Rain* | Wind** | Luminosity | Snow |
|---|---|---|---|---|---|---|---|
| 1778065073 | 15.56° C | 87% | 1011 hPa | 0.51 mm | - | - | - |
| 1778064775 | 15.56° C | 87% | 1010.9 hPa | 0.51 mm | - | - | - |
| 1778064472 | 15° C | 87% | 1011 hPa | 0.51 mm | - | - | - |
| 1778063872 | 15.56° C | 87% | 1011.2 hPa | 1.02 mm | - | - | - |
| 1778063271 | 15.56° C | 87% | 1011.2 hPa | 1.02 mm | - | - | - |
| 1778062975 | 15.56° C | 87% | 1011.1 hPa | 1.02 mm | - | - | - |
| 1778062070 | 15.56° C | 86% | 1011.3 hPa | 0.51 mm | - | - | - |
| 1778061170 | 16.11° C | 85% | 1011.4 hPa | 1.52 mm | - | - | - |
| 1778060869 | 16.11° C | 84% | 1011.4 hPa | 1.52 mm | - | - | - |
| 1778059969 | 16.11° C | 84% | 1011.4 hPa | 1.02 mm | - | - | - |
| 1778059668 | 16.11° C | 84% | 1011.5 hPa | 1.02 mm | - | - | - |
| 1778059067 | 16.11° C | 85% | 1011.5 hPa | 1.02 mm | - | - | - |
| 1778058768 | 16.11° C | 85% | 1011.5 hPa | 1.02 mm | - | - | - |
| 1778057866 | 15.56° C | 84% | 1011.4 hPa | 0 mm | - | - | - |
| 1778056966 | 16.11° C | 83% | 1011.5 hPa | 0 mm | - | - | - |
| 1778056665 | 16.11° C | 83% | 1011.4 hPa | 0 mm | - | - | - |
| 1778056064 | 16.11° C | 83% | 1011.1 hPa | 0 mm | - | - | - |
| 1778055765 | 16.11° C | 83% | 1011.2 hPa | 0 mm | - | - | - |
| 1778055464 | 16.11° C | 83% | 1011.1 hPa | 0 mm | - | - | - |
| 1778054564 | 16.11° C | 83% | 1010.9 hPa | 0 mm | - | - | - |
| 1778053662 | 16.11° C | 82% | 1010.8 hPa | 0 mm | - | - | - |
| 1778052762 | 15.56° C | 84% | 1010.8 hPa | 0 mm | - | - | - |
| 1778052461 | 15.56° C | 85% | 1010.9 hPa | 0 mm | - | - | - |
| 1778051260 | 13.89° C | 89% | 1011.1 hPa | 0 mm | - | - | - |
| 1778050961 | 13.89° C | 89% | 1011.3 hPa | 0 mm | - | - | - |
* Rain latest hour (hover to see other rain measurements)
** Current wind speed in m/s (hover to see current wind gust speed)